FENGYUN 1C DEB, 31224

Orbit data source: Space-Track

FENGYUN 1C DEB, 31224 is space debris in SSO originally from a launch on Mon, 10 May 1999 UTC launched from the Taiyaun Space Center, China (TSC). Fengyun 1C debris stems from the Chinese weather satellite Fengyun-1C, which was intentionally destroyed by a Chinese anti-satellite missile in 2007. This event dramatically increased the amount of space debris, with thousands of trackable fragments posing hazards to satellites and human spaceflight. The Fengyun 1C debris cloud has become a focal point in discussions about space sustainability and the need for international regulations to prevent the creation of new debris.

Loading next visibility...
Identifier
31224, 1999-025BLE
Orbit
SSO
Country
Flag of CNCN / PRC
Related business
Manufacturer
Unknown
Mission
Spacecraft
Bus & Motor
Unknown
Mass
Unknown
Launch date (UTC)
1999-05-10 (27 years ago)
Launch vehicle
Unknown
Launch site
Taiyaun Space Center, China (TSC)
Object type
Payload
Rocket body
Debris
Shape & HBR
Unknown shape, 0.1 m
Radar Cross Section
Small (<0.1 m²)

Expand to show TLE details & history
Last TLE update: 6 days ago

TLE from 6 days ago
0 FENGYUN 1C DEB
1 31224U 99025BLE 26202.73987115  .00000426  00000-0  16226-3 0  9992
2 31224  98.3842 191.2137 0155532 230.1567 304.4705 14.29399827724074
Epoch: 2026-07-21T17:45Z
TLE epoch observation values (Epoch: 2026-07-21T17:45:24.867Z)
Latitude
6.70909°
Longitude
166.34294°
Altitude
734.105 km
Speed
7.521 km/s
True Right ascension
00h 48m 48s
True Declination
6° 40' 09"
Sunlit
Object was in daylight at epoch
Visualization orbit readout
Latitude
Unknown
Longitude
Unknown
Altitude
Unknown
Speed
Unknown
Apparent Right ascension
Unknown
Apparent Declination
Unknown
Sunlit
N/A
Visualization observer readout
Local Sidereal Time
00:26:23
Azimuth
Unknown
Elevation
Unknown
Doppler factor
Unknown
Orbital elements
Apogee altitude
902.368 km
Perigee altitude
679.366 km
Semi-major axis
7,169.004 km
Eccentricity
0.01555
Inclination
98.3842°
RAAN
191.2137°
Arg. of periapsis
230.1567°
True anomaly
302.985°
Mean anomaly
304.4705°
Eccentric anomaly
303.72937°
Mean motion
3.57565 °/min
Orbital period
100.68 mins
BSTAR
0.00016226
Loading maneuver chart data...
Computing Atmospheric mass density...

Documentation

Showing up to 5 results
|